Flag for Morocco Weather past 2 weeks in Marrakech, Morocco

50 °F


Feels Like: 49 °F
Forecast: N/A
Wind: 3 mph from East

Location: Marrakech Airport

Current Time: Nov 24, 2015 at 10:37:50 PM

Latest Report: Nov 24, 2015 at 9:30 PM

Visibility: 10 mi

Pressure: 30.30 "Hg

Humidity: 50%

Dew point: 32 °F

Location of MarrakechLocation

Historic Weather in Marrakech — Graph


Marrakech temperature yesterday

Maximum temperature yesterday: 64 °F (at 2:00 PM)
Minimum temperature yesterday: 46 °F (at 6:00 AM)
Average temperature yesterday: 56 °F

Past Weeks' High & Low Weather Summary

High82 °F (Nov 12, 2:00 PM)100% (Nov 17, 1:00 AM)30.42 "Hg (Nov 17, 1:00 AM)
Low43 °F (Nov 24, 7:00 AM)21% (Nov 13, 3:30 PM)29.98 "Hg (Nov 23, 3:30 AM)
Average64 °F56%30.23 "Hg
* Reported Nov 9 9:00 PM — Nov 24 9:00 PM, Marrakech, Weather by CustomWeather, © 2015

Note: Actual official high and low records may vary slightly from our data, if they occured in-between our weather recording intervals... More about our weather records


Marrakech weather history for previous 24 hours

Time TempWeatherWind HumidityBarometerVisibility
9:00 PM
Tue, Nov 24
52 °FClear.6 mph47%30.30 "Hg10 mi
8:30 PM52 °FClear.6 mph50%30.30 "Hg10 mi
8:00 PM54 °FClear.6 mph47%30.30 "Hg10 mi
7:30 PM55 °FClear.6 mph44%30.30 "Hg10 mi
7:00 PM57 °FClear.6 mph41%30.30 "Hg10 mi
6:30 PM59 °FClear.7 mph39%30.30 "Hg10 mi
6:00 PM61 °FClear.7 mph34%30.27 "Hg10 mi
5:30 PM61 °FClear.7 mph31%30.27 "Hg10 mi
5:00 PM63 °FClear.8 mph30%30.27 "Hg10 mi
4:30 PM63 °FPassing clouds.8 mph32%30.27 "HgN/A
4:00 PM64 °FSunny.9 mph30%30.27 "Hg10 mi
3:30 PM64 °FPassing clouds.8 mph30%30.27 "HgN/A
3:00 PM64 °FPassing clouds.8 mph32%30.27 "HgN/A
2:30 PM64 °FPassing clouds.8 mph34%30.24 "HgN/A
2:00 PM64 °FPassing clouds.7 mph37%30.24 "HgN/A
1:30 PM63 °FPassing clouds.6 mph39%30.24 "HgN/A
1:00 PM63 °FPassing clouds.7 mph39%30.27 "HgN/A
12:30 PM61 °FPassing clouds.7 mph45%30.27 "HgN/A
12:00 PM61 °FPassing clouds.7 mph42%30.30 "HgN/A
11:30 AM59 °FPassing clouds.7 mph51%30.30 "HgN/A
11:00 AM57 °FPassing clouds.6 mph59%30.30 "HgN/A
10:30 AM55 °FPassing clouds.6 mph63%30.30 "HgN/A
10:00 AM55 °FPassing clouds.5 mph63%30.30 "HgN/A
9:30 AM54 °FSunny.5 mph67%30.30 "Hg10 mi
9:00 AM52 °FPassing clouds.5 mph72%30.27 "HgN/A
8:30 AM48 °FSunny.3 mph82%30.27 "Hg10 mi
8:00 AM46 °FSunny.5 mph87%30.24 "Hg10 mi
7:30 AM43 °FSunny.5 mph93%30.24 "Hg10 mi
7:00 AM43 °FSunny.5 mph87%30.24 "Hg10 mi
6:00 AM45 °FClear.6 mph87%30.21 "Hg10 mi
5:30 AM45 °FClear.7 mph93%30.21 "Hg10 mi
5:00 AM46 °FClear.8 mph87%30.21 "Hg10 mi
4:30 AM45 °FClear.7 mph87%30.18 "Hg10 mi
4:00 AM45 °FQuite cool.5 mph87%30.18 "HgN/A
3:00 AM46 °FCool.3 mph87%30.18 "HgN/A
2:30 AM45 °FQuite cool.5 mph87%30.18 "HgN/A
2:00 AM46 °FCool.6 mph82%30.15 "HgN/A
1:30 AM46 °FCool.5 mph87%30.15 "HgN/A
1:00 AM48 °FClear.5 mph76%30.15 "Hg10 mi
12:30 AM50 °FClear.7 mph76%30.15 "Hg10 mi
11:30 PM
Mon, Nov 23
52 °FClear.7 mph72%30.15 "Hg10 mi
10:30 PM54 °FPassing clouds.8 mph72%30.15 "HgN/A
10:00 PM54 °FClear.8 mph72%30.15 "Hg10 mi
Weather by CustomWeather, © 2015

See weather overviewHow to use our weather pages